Year,Month,Day,Hour,Minute,Value (Times are PST for temperature in C)
2015,07,13,00,00,16.10
2015,07,13,00,01,16.10
2015,07,13,00,02,16.10
2015,07,13,00,03,16.10
2015,07,13,00,04,16.10
2015,07,13,00,05,16.00
2015,07,13,00,06,16.00
2015,07,13,00,07,16.00
2015,07,13,00,08,16.00
2015,07,13,00,09,15.90
2015,07,13,00,10,15.90
2015,07,13,00,11,15.90
2015,07,13,00,12,15.90
2015,07,13,00,13,15.90
2015,07,13,00,14,15.90
2015,07,13,00,15,15.90
2015,07,13,00,16,15.80
2015,07,13,00,17,15.80
2015,07,13,00,18,15.80
2015,07,13,00,19,15.80
2015,07,13,00,20,15.80
2015,07,13,00,21,15.80
2015,07,13,00,22,15.80
2015,07,13,00,23,15.80
2015,07,13,00,24,15.80
2015,07,13,00,25,15.80
2015,07,13,00,26,15.70
2015,07,13,00,27,15.70
2015,07,13,00,28,15.70
2015,07,13,00,29,15.70
2015,07,13,00,30,15.70
2015,07,13,00,31,15.70
2015,07,13,00,32,15.70
2015,07,13,00,33,15.70
2015,07,13,00,34,15.70
2015,07,13,00,35,15.70
2015,07,13,00,36,15.70
2015,07,13,00,37,15.70
2015,07,13,00,38,15.70
2015,07,13,00,39,15.60
2015,07,13,00,40,15.60
2015,07,13,00,41,15.60
2015,07,13,00,42,15.60
2015,07,13,00,43,15.60
2015,07,13,00,44,15.60
2015,07,13,00,45,15.60
2015,07,13,00,46,15.60
2015,07,13,00,47,15.60
2015,07,13,00,48,15.50
2015,07,13,00,49,15.50
2015,07,13,00,50,15.50
2015,07,13,00,51,15.40
2015,07,13,00,52,15.40
2015,07,13,00,53,15.40
2015,07,13,00,54,15.40
2015,07,13,00,55,15.40
2015,07,13,00,56,15.40
2015,07,13,00,57,15.40
2015,07,13,00,58,15.40
2015,07,13,00,59,15.40
2015,07,13,01,00,15.30
2015,07,13,01,01,15.30
2015,07,13,01,02,15.30
2015,07,13,01,03,15.30
2015,07,13,01,04,15.30
2015,07,13,01,05,15.30
2015,07,13,01,06,15.30
2015,07,13,01,07,15.30
2015,07,13,01,08,15.30
2015,07,13,01,09,15.30
2015,07,13,01,10,15.30
2015,07,13,01,11,15.30
2015,07,13,01,12,15.30
2015,07,13,01,13,15.30
2015,07,13,01,14,15.30
2015,07,13,01,15,15.30
2015,07,13,01,16,15.30
2015,07,13,01,17,15.30
2015,07,13,01,18,15.40
2015,07,13,01,19,15.40
2015,07,13,01,20,15.40
2015,07,13,01,21,15.40
2015,07,13,01,22,15.40
2015,07,13,01,23,15.40
2015,07,13,01,24,15.50
2015,07,13,01,25,15.50
2015,07,13,01,26,15.50
2015,07,13,01,27,15.50
2015,07,13,01,28,15.50
2015,07,13,01,29,15.50
2015,07,13,01,30,15.50
2015,07,13,01,31,15.60
2015,07,13,01,32,15.60
2015,07,13,01,33,15.60
2015,07,13,01,34,15.60
2015,07,13,01,35,15.60
2015,07,13,01,36,15.60
2015,07,13,01,37,15.60
2015,07,13,01,38,15.60
2015,07,13,01,39,15.60
2015,07,13,01,40,15.60
2015,07,13,01,41,15.60
2015,07,13,01,42,15.60
2015,07,13,01,43,15.70
2015,07,13,01,44,15.70
2015,07,13,01,45,15.70
2015,07,13,01,46,15.70
2015,07,13,01,47,15.70
2015,07,13,01,48,15.70
2015,07,13,01,49,15.70
2015,07,13,01,50,15.70
2015,07,13,01,51,15.70
2015,07,13,01,52,15.70
2015,07,13,01,53,15.70
2015,07,13,01,54,15.70
2015,07,13,01,55,15.70
2015,07,13,01,56,15.70
2015,07,13,01,57,15.70
2015,07,13,01,58,15.70
2015,07,13,01,59,15.70
2015,07,13,02,00,15.70
2015,07,13,02,01,15.70
2015,07,13,02,02,15.70
2015,07,13,02,03,15.70
2015,07,13,02,04,15.70
2015,07,13,02,05,15.70
2015,07,13,02,06,15.70
2015,07,13,02,07,15.60
2015,07,13,02,08,15.60
2015,07,13,02,09,15.60
2015,07,13,02,10,15.60
2015,07,13,02,11,15.60
2015,07,13,02,12,15.60
2015,07,13,02,13,15.60
2015,07,13,02,14,15.60
2015,07,13,02,15,15.60
2015,07,13,02,16,15.60
2015,07,13,02,17,15.60
2015,07,13,02,18,15.60
2015,07,13,02,19,15.60
2015,07,13,02,20,15.60
2015,07,13,02,21,15.70
2015,07,13,02,22,15.60
2015,07,13,02,23,15.60
2015,07,13,02,24,15.60
2015,07,13,02,25,15.60
2015,07,13,02,26,15.60
2015,07,13,02,27,15.60
2015,07,13,02,28,15.60
2015,07,13,02,29,15.50
2015,07,13,02,30,15.50
2015,07,13,02,31,15.50
2015,07,13,02,32,15.40
2015,07,13,02,33,15.40
2015,07,13,02,34,15.40
2015,07,13,02,35,15.40
2015,07,13,02,36,15.30
2015,07,13,02,37,15.30
2015,07,13,02,38,15.20
2015,07,13,02,39,15.20
2015,07,13,02,40,15.20
2015,07,13,02,41,15.20
2015,07,13,02,42,15.20
2015,07,13,02,43,15.20
2015,07,13,02,44,15.20
2015,07,13,02,45,15.10
2015,07,13,02,46,15.10
2015,07,13,02,47,15.10
2015,07,13,02,48,15.00
2015,07,13,02,49,15.00
2015,07,13,02,50,14.90
2015,07,13,02,51,14.90
2015,07,13,02,52,14.90
2015,07,13,02,53,14.90
2015,07,13,02,54,14.80
2015,07,13,02,55,14.80
2015,07,13,02,56,14.80
2015,07,13,02,57,14.80
2015,07,13,02,58,14.80
2015,07,13,02,59,14.80
2015,07,13,03,00,14.80
2015,07,13,03,01,14.80
2015,07,13,03,02,14.80
2015,07,13,03,06,14.70
2015,07,13,03,07,14.70
2015,07,13,03,08,14.60
2015,07,13,03,09,14.60
2015,07,13,03,10,14.60
2015,07,13,03,11,14.60
2015,07,13,03,12,14.60
2015,07,13,03,13,14.60
2015,07,13,03,14,14.50
2015,07,13,03,15,14.50
2015,07,13,03,16,14.50
2015,07,13,03,17,14.50
2015,07,13,03,18,14.50
2015,07,13,03,19,14.40
2015,07,13,03,20,14.40
2015,07,13,03,21,14.40
2015,07,13,03,22,14.40
2015,07,13,03,23,14.40
2015,07,13,03,24,14.40
2015,07,13,03,25,14.40
2015,07,13,03,26,14.40
2015,07,13,03,27,14.30
2015,07,13,03,28,14.30
2015,07,13,03,29,14.30
2015,07,13,03,30,14.30
2015,07,13,03,31,14.30
2015,07,13,03,32,14.20
2015,07,13,03,33,14.20
2015,07,13,03,34,14.20
2015,07,13,03,35,14.20
2015,07,13,03,36,14.10
2015,07,13,03,37,14.10
2015,07,13,03,38,14.10
2015,07,13,03,39,14.10
2015,07,13,03,40,14.10
2015,07,13,03,41,14.10
2015,07,13,03,42,14.00
2015,07,13,03,43,14.00
2015,07,13,03,44,14.00
2015,07,13,03,45,13.90
2015,07,13,03,46,13.90
2015,07,13,03,47,13.90
2015,07,13,03,48,13.90
2015,07,13,03,49,13.90
2015,07,13,03,50,13.90
2015,07,13,03,51,13.90
2015,07,13,03,52,13.90
2015,07,13,03,53,13.90
2015,07,13,03,54,13.80
2015,07,13,03,55,13.80
2015,07,13,03,56,13.80
2015,07,13,03,57,13.70
2015,07,13,03,58,13.60
2015,07,13,03,59,13.60
2015,07,13,04,00,13.60
2015,07,13,04,01,13.60
2015,07,13,04,02,13.50
2015,07,13,04,03,13.50
2015,07,13,04,04,13.50
2015,07,13,04,05,13.40
2015,07,13,04,06,13.40
2015,07,13,04,07,13.40
2015,07,13,04,08,13.40
2015,07,13,04,09,13.30
2015,07,13,04,10,13.30
2015,07,13,04,11,13.30
2015,07,13,04,12,13.30
2015,07,13,04,13,13.30
2015,07,13,04,14,13.30
2015,07,13,04,15,13.30
2015,07,13,04,16,13.20
2015,07,13,04,17,13.20
2015,07,13,04,18,13.20
2015,07,13,04,19,13.20
2015,07,13,04,20,13.20
2015,07,13,04,21,13.10
2015,07,13,04,22,13.10
2015,07,13,04,23,13.10
2015,07,13,04,24,13.10
2015,07,13,04,25,13.10
2015,07,13,04,26,13.10
2015,07,13,04,27,13.10
2015,07,13,04,28,13.00
2015,07,13,04,29,13.00
2015,07,13,04,30,13.00
2015,07,13,04,31,12.90
2015,07,13,04,32,12.90
2015,07,13,04,33,12.90
2015,07,13,04,34,12.80
2015,07,13,04,35,12.80
2015,07,13,04,36,12.80
2015,07,13,04,37,12.80
2015,07,13,04,38,12.80
2015,07,13,04,39,12.70
2015,07,13,04,40,12.70
2015,07,13,04,41,12.70
2015,07,13,04,42,12.70
2015,07,13,04,43,12.70
2015,07,13,04,44,12.70
2015,07,13,04,45,12.70
2015,07,13,04,46,12.70
2015,07,13,04,47,12.60
2015,07,13,04,48,12.60
2015,07,13,04,49,12.60
2015,07,13,04,50,12.60
2015,07,13,04,51,12.60
2015,07,13,04,52,12.60
2015,07,13,04,53,12.60
2015,07,13,04,54,12.50
2015,07,13,04,55,12.50
2015,07,13,04,56,12.50
2015,07,13,04,57,12.50
2015,07,13,04,58,12.40
2015,07,13,04,59,12.40
2015,07,13,05,00,12.40
2015,07,13,05,01,12.40
2015,07,13,05,02,12.40
2015,07,13,05,03,12.40
2015,07,13,05,04,12.30
2015,07,13,05,05,12.30
2015,07,13,05,06,12.30
2015,07,13,05,07,12.30
2015,07,13,05,08,12.30
2015,07,13,05,09,12.30
2015,07,13,05,10,12.30
2015,07,13,05,11,12.30
2015,07,13,05,12,12.30
2015,07,13,05,13,12.30
2015,07,13,05,14,12.20
2015,07,13,05,15,12.20
2015,07,13,05,16,12.20
2015,07,13,05,17,12.20
2015,07,13,05,18,12.20
2015,07,13,05,19,12.10
2015,07,13,05,20,12.10
2015,07,13,05,21,12.10
2015,07,13,05,22,12.10
2015,07,13,05,23,12.10
2015,07,13,05,24,12.00
2015,07,13,05,25,12.00
2015,07,13,05,26,12.00
2015,07,13,05,27,12.10
2015,07,13,05,28,12.10
2015,07,13,05,29,12.10
2015,07,13,05,30,12.10
2015,07,13,05,31,12.10
2015,07,13,05,32,12.10
2015,07,13,05,33,12.00
2015,07,13,05,34,12.00
2015,07,13,05,35,12.00
2015,07,13,05,36,11.90
2015,07,13,05,37,11.90
2015,07,13,05,38,11.90
2015,07,13,05,39,11.90
2015,07,13,05,40,11.80
2015,07,13,05,41,11.80
2015,07,13,05,42,11.90
2015,07,13,05,43,11.90
2015,07,13,05,44,11.90
2015,07,13,05,45,11.90
2015,07,13,05,46,11.90
2015,07,13,05,47,11.90
2015,07,13,05,48,11.90
2015,07,13,05,49,11.90
2015,07,13,05,50,11.90
2015,07,13,05,51,11.90
2015,07,13,05,52,11.90
2015,07,13,05,53,11.90
2015,07,13,05,54,11.90
2015,07,13,05,55,11.90
2015,07,13,05,56,11.90
2015,07,13,05,57,11.90
2015,07,13,05,58,11.90
2015,07,13,05,59,11.90
2015,07,13,06,00,11.90
2015,07,13,06,01,11.90
2015,07,13,06,02,11.90
2015,07,13,06,03,11.90
2015,07,13,06,04,11.90
2015,07,13,06,05,11.90
2015,07,13,06,06,11.90
2015,07,13,06,07,11.90
2015,07,13,06,08,11.80
2015,07,13,06,09,11.80
2015,07,13,06,10,11.80
2015,07,13,06,11,11.80
2015,07,13,06,12,11.80
2015,07,13,06,13,11.80
2015,07,13,06,14,11.80
2015,07,13,06,15,11.80
2015,07,13,06,16,11.80
2015,07,13,06,17,11.80
2015,07,13,06,18,11.80
2015,07,13,06,19,11.80
2015,07,13,06,20,11.80
2015,07,13,06,21,11.80
2015,07,13,06,22,11.80
2015,07,13,06,23,11.80
2015,07,13,06,24,11.80
2015,07,13,06,25,11.90
2015,07,13,06,26,11.90
2015,07,13,06,27,11.90
2015,07,13,06,28,11.90
2015,07,13,06,29,11.90
2015,07,13,06,30,11.90
2015,07,13,06,31,11.90
2015,07,13,06,32,11.90
2015,07,13,06,33,12.00
2015,07,13,06,34,12.00
2015,07,13,06,35,12.00
2015,07,13,06,36,12.10
2015,07,13,06,37,12.10
2015,07,13,06,38,12.10
2015,07,13,06,39,12.10
2015,07,13,06,40,12.20
2015,07,13,06,41,12.20
2015,07,13,06,42,12.20
2015,07,13,06,43,12.20
2015,07,13,06,44,12.30
2015,07,13,06,45,12.30
2015,07,13,06,46,12.30
2015,07,13,06,47,12.30
2015,07,13,06,48,12.30
2015,07,13,06,49,12.40
2015,07,13,06,50,12.40
2015,07,13,06,51,12.40
2015,07,13,06,52,12.40
2015,07,13,06,53,12.50
2015,07,13,06,54,12.50
2015,07,13,06,55,12.50
2015,07,13,06,56,12.60
2015,07,13,06,57,12.60
2015,07,13,06,58,12.60
2015,07,13,06,59,12.70
2015,07,13,07,00,12.70
2015,07,13,07,01,12.80
2015,07,13,07,02,12.80
2015,07,13,07,03,12.80
2015,07,13,07,04,12.90
2015,07,13,07,05,12.90
2015,07,13,07,06,12.90
2015,07,13,07,07,13.00
2015,07,13,07,08,13.00
2015,07,13,07,09,13.10
2015,07,13,07,10,13.10
2015,07,13,07,11,13.10
2015,07,13,07,12,13.20
2015,07,13,07,13,13.20
2015,07,13,07,14,13.20
2015,07,13,07,15,13.30
2015,07,13,07,16,13.30
2015,07,13,07,17,13.40
2015,07,13,07,18,13.40
2015,07,13,07,19,13.50
2015,07,13,07,20,13.60
2015,07,13,07,21,13.60
2015,07,13,07,22,13.70
2015,07,13,07,23,13.80
2015,07,13,07,24,13.80
2015,07,13,07,25,13.80
2015,07,13,07,26,13.90
2015,07,13,07,27,13.90
2015,07,13,07,28,14.00
2015,07,13,07,29,14.00
2015,07,13,07,30,14.10
2015,07,13,07,31,14.10
2015,07,13,07,32,14.20
2015,07,13,07,33,14.20
2015,07,13,07,34,14.30
2015,07,13,07,35,14.30
2015,07,13,07,36,14.30
2015,07,13,07,37,14.40
2015,07,13,07,38,14.40
2015,07,13,07,39,14.50
2015,07,13,07,40,14.50
2015,07,13,07,41,14.60
2015,07,13,07,42,14.60
2015,07,13,07,43,14.70
2015,07,13,07,44,14.70
2015,07,13,07,45,14.70
2015,07,13,07,46,14.70
2015,07,13,07,47,14.80
2015,07,13,07,48,14.80
2015,07,13,07,49,14.80
2015,07,13,07,50,14.90
2015,07,13,07,51,14.90
2015,07,13,07,52,15.00
2015,07,13,07,53,15.00
2015,07,13,07,54,15.10
2015,07,13,07,55,15.10
2015,07,13,07,56,15.20
2015,07,13,07,57,15.20
2015,07,13,07,58,15.30
2015,07,13,07,59,15.40
2015,07,13,08,00,15.50
2015,07,13,08,01,15.60
2015,07,13,08,02,15.60
2015,07,13,08,03,15.60
2015,07,13,08,04,15.70
2015,07,13,08,05,15.70
2015,07,13,08,06,15.80
2015,07,13,08,07,15.80
2015,07,13,08,08,15.90
2015,07,13,08,09,16.00
2015,07,13,08,10,16.10
2015,07,13,08,11,16.20
2015,07,13,08,12,16.20
2015,07,13,08,13,16.30
2015,07,13,08,14,16.40
2015,07,13,08,15,16.50
2015,07,13,08,16,16.50
2015,07,13,08,17,16.60
2015,07,13,08,18,16.70
2015,07,13,08,19,16.80
2015,07,13,08,20,16.90
2015,07,13,08,21,16.90
2015,07,13,08,22,17.00
2015,07,13,08,23,17.00
2015,07,13,08,24,17.10
2015,07,13,08,25,17.20
2015,07,13,08,26,17.20
2015,07,13,08,27,17.30
2015,07,13,08,28,17.40
2015,07,13,08,29,17.50
2015,07,13,08,30,17.50
2015,07,13,08,31,17.60
2015,07,13,08,32,17.70
2015,07,13,08,33,17.80
2015,07,13,08,34,17.90
2015,07,13,08,35,17.90
2015,07,13,08,36,18.00
2015,07,13,08,37,18.10
2015,07,13,08,38,18.20
2015,07,13,08,39,18.30
2015,07,13,08,40,18.40
2015,07,13,08,41,18.50
2015,07,13,08,42,18.60
2015,07,13,08,43,18.70
2015,07,13,08,44,18.70
2015,07,13,08,45,18.80
2015,07,13,08,46,18.80
2015,07,13,08,47,18.90
2015,07,13,08,48,18.90
2015,07,13,08,49,19.00
2015,07,13,08,50,19.00
2015,07,13,08,51,19.10
2015,07,13,08,52,19.10
2015,07,13,08,53,19.20
2015,07,13,08,54,19.20
2015,07,13,08,55,19.30
2015,07,13,08,56,19.30
2015,07,13,08,57,19.40
2015,07,13,08,58,19.50
2015,07,13,08,59,19.60
2015,07,13,09,00,19.70
2015,07,13,09,01,19.70
2015,07,13,09,02,19.80
2015,07,13,09,03,20.00
2015,07,13,09,04,20.10
2015,07,13,09,05,20.10
2015,07,13,09,06,20.20
2015,07,13,09,07,20.30
2015,07,13,09,08,20.30
2015,07,13,09,09,20.30
2015,07,13,09,10,20.40
2015,07,13,09,11,20.40
2015,07,13,09,12,20.40
2015,07,13,09,13,20.40
2015,07,13,09,14,20.50
2015,07,13,09,15,20.50
2015,07,13,09,16,20.60
2015,07,13,09,17,20.60
2015,07,13,09,18,20.60
2015,07,13,09,19,20.60
2015,07,13,09,20,20.60
2015,07,13,09,21,20.60
2015,07,13,09,22,20.60
2015,07,13,09,23,20.60
2015,07,13,09,24,20.60
2015,07,13,09,25,20.50
2015,07,13,09,26,20.40
2015,07,13,09,27,20.40
2015,07,13,09,28,20.50
2015,07,13,09,29,20.60
2015,07,13,09,30,20.70
2015,07,13,09,31,20.70
2015,07,13,09,32,20.80
2015,07,13,09,33,20.90
2015,07,13,09,34,20.90
2015,07,13,09,35,20.90
2015,07,13,09,36,20.90
2015,07,13,09,37,20.90
2015,07,13,09,38,20.90
2015,07,13,09,39,20.90
2015,07,13,09,40,20.90
2015,07,13,09,41,20.90
2015,07,13,09,42,20.90
2015,07,13,09,43,20.90
2015,07,13,09,44,21.00
2015,07,13,09,45,21.00
2015,07,13,09,46,21.10
2015,07,13,09,47,21.10
2015,07,13,09,48,21.10
2015,07,13,09,49,21.10
2015,07,13,09,50,21.10
2015,07,13,09,51,21.10
2015,07,13,09,52,21.10
2015,07,13,09,53,21.00
2015,07,13,09,54,20.90
2015,07,13,09,55,20.80
2015,07,13,09,56,20.70
2015,07,13,09,57,20.60
2015,07,13,09,58,20.60
2015,07,13,09,59,20.50
2015,07,13,10,00,20.50
2015,07,13,10,01,20.50
2015,07,13,10,02,20.50
2015,07,13,10,03,20.60
2015,07,13,10,04,20.60
2015,07,13,10,05,20.60
2015,07,13,10,06,20.70
2015,07,13,10,07,20.70
2015,07,13,10,08,20.70
2015,07,13,10,09,20.70
2015,07,13,10,10,20.70
2015,07,13,10,11,20.80
2015,07,13,10,12,20.80
2015,07,13,10,13,20.80
2015,07,13,10,14,20.90
2015,07,13,10,15,20.90
2015,07,13,10,16,21.00
2015,07,13,10,17,21.00
2015,07,13,10,18,21.00
2015,07,13,10,19,21.10
2015,07,13,10,20,21.10
2015,07,13,10,21,21.10
2015,07,13,10,22,21.00
2015,07,13,10,23,21.00
2015,07,13,10,24,20.90
2015,07,13,10,25,20.90
2015,07,13,10,26,20.90
2015,07,13,10,27,20.90
2015,07,13,10,28,20.90
2015,07,13,10,29,20.90
2015,07,13,10,30,20.90
2015,07,13,10,31,20.90
2015,07,13,10,32,20.90
2015,07,13,10,33,20.90
2015,07,13,10,34,20.90
2015,07,13,10,35,20.90
2015,07,13,10,36,20.90
2015,07,13,10,37,20.90
2015,07,13,10,38,21.00
2015,07,13,10,39,21.00
2015,07,13,10,40,21.00
2015,07,13,10,41,21.00
2015,07,13,10,42,21.00
2015,07,13,10,43,21.10
2015,07,13,10,44,21.10
2015,07,13,10,45,21.10
2015,07,13,10,46,21.10
2015,07,13,10,47,21.10
2015,07,13,10,48,21.10
2015,07,13,10,49,21.10
2015,07,13,10,50,21.20
2015,07,13,10,51,21.20
2015,07,13,10,52,21.30
2015,07,13,10,53,21.40
2015,07,13,10,54,21.60
2015,07,13,10,55,21.80
2015,07,13,10,56,21.90
2015,07,13,10,57,21.90
2015,07,13,10,58,22.00
2015,07,13,10,59,22.10
2015,07,13,11,00,22.20
2015,07,13,11,01,22.20
2015,07,13,11,02,22.40
2015,07,13,11,03,22.50
2015,07,13,11,04,22.50
2015,07,13,11,05,22.50
2015,07,13,11,06,22.60
2015,07,13,11,07,22.60
2015,07,13,11,08,22.70
2015,07,13,11,09,22.80
2015,07,13,11,10,22.80
2015,07,13,11,11,22.70
2015,07,13,11,12,22.60
2015,07,13,11,13,22.60
2015,07,13,11,14,22.60
2015,07,13,11,15,22.60
2015,07,13,11,16,22.60
2015,07,13,11,17,22.60
2015,07,13,11,18,22.60
2015,07,13,11,19,22.60
2015,07,13,11,20,22.50
2015,07,13,11,21,22.50
2015,07,13,11,22,22.50
2015,07,13,11,23,22.60
2015,07,13,11,24,22.60
2015,07,13,11,25,22.60
2015,07,13,11,26,22.60
2015,07,13,11,27,22.60
2015,07,13,11,28,22.60
2015,07,13,11,29,22.60
2015,07,13,11,30,22.50
2015,07,13,11,31,22.40
2015,07,13,11,32,22.30
2015,07,13,11,33,22.30
2015,07,13,11,34,22.30
2015,07,13,11,35,22.30
2015,07,13,11,36,22.30
2015,07,13,11,37,22.30
2015,07,13,11,38,22.30
2015,07,13,11,39,22.30
2015,07,13,11,40,22.30
2015,07,13,11,41,22.30
2015,07,13,11,42,22.20
2015,07,13,11,43,22.10
2015,07,13,11,44,22.10
2015,07,13,11,45,22.00
2015,07,13,11,46,21.90
2015,07,13,11,47,21.80
2015,07,13,11,48,21.80
2015,07,13,11,49,21.80
2015,07,13,11,50,21.70
2015,07,13,11,51,21.60
2015,07,13,11,52,21.60
2015,07,13,11,53,21.50
2015,07,13,11,54,21.50
2015,07,13,11,55,21.40
2015,07,13,11,56,21.30
2015,07,13,11,57,21.30
2015,07,13,11,58,21.30
2015,07,13,11,59,21.30
2015,07,13,12,00,21.40
2015,07,13,12,01,21.50
2015,07,13,12,02,21.60
2015,07,13,12,03,21.80
2015,07,13,12,04,21.80
2015,07,13,12,05,21.80
2015,07,13,12,06,21.90
2015,07,13,12,07,21.90
2015,07,13,12,08,22.00
2015,07,13,12,09,22.20
2015,07,13,12,10,22.30
2015,07,13,12,11,22.40
2015,07,13,12,12,22.40
2015,07,13,12,13,22.40
2015,07,13,12,14,22.50
2015,07,13,12,15,22.60
2015,07,13,12,16,22.60
2015,07,13,12,17,22.70
2015,07,13,12,18,22.70
2015,07,13,12,19,22.80
2015,07,13,12,20,22.80
2015,07,13,12,21,22.80
2015,07,13,12,22,22.80
2015,07,13,12,23,22.80
2015,07,13,12,24,22.70
2015,07,13,12,25,22.70
2015,07,13,12,26,22.60
2015,07,13,12,27,22.50
2015,07,13,12,28,22.40
2015,07,13,12,29,22.40
2015,07,13,12,30,22.40
2015,07,13,12,31,22.40
2015,07,13,12,32,22.50
2015,07,13,12,33,22.50
2015,07,13,12,34,22.50
2015,07,13,12,35,22.60
2015,07,13,12,36,22.70
2015,07,13,12,37,22.80
2015,07,13,12,38,23.00
2015,07,13,12,39,23.10
2015,07,13,12,40,23.10
2015,07,13,12,41,23.10
2015,07,13,12,42,23.10
2015,07,13,12,43,23.00
2015,07,13,12,44,22.90
2015,07,13,12,45,22.80
2015,07,13,12,46,22.70
2015,07,13,12,47,22.70
2015,07,13,12,48,22.60
2015,07,13,12,49,22.60
2015,07,13,12,50,22.60
2015,07,13,12,51,22.60
2015,07,13,12,52,22.60
2015,07,13,12,53,22.50
2015,07,13,12,54,22.30
2015,07,13,12,55,22.30
2015,07,13,12,56,22.30
2015,07,13,12,57,22.40
2015,07,13,12,58,22.50
2015,07,13,12,59,22.60
2015,07,13,13,00,22.50
2015,07,13,13,01,22.60
2015,07,13,13,02,22.70
2015,07,13,13,03,22.70
2015,07,13,13,04,22.80
2015,07,13,13,05,22.90
2015,07,13,13,06,23.10
2015,07,13,13,07,23.10
2015,07,13,13,08,23.10
2015,07,13,13,09,23.00
2015,07,13,13,10,23.00
2015,07,13,13,11,22.90
2015,07,13,13,12,22.90
2015,07,13,13,13,22.90
2015,07,13,13,14,23.00
2015,07,13,13,15,23.20
2015,07,13,13,16,23.30
2015,07,13,13,17,23.30
2015,07,13,13,18,23.30
2015,07,13,13,19,23.30
2015,07,13,13,20,23.30
2015,07,13,13,21,23.30
2015,07,13,13,22,23.40
2015,07,13,13,23,23.40
2015,07,13,13,24,23.50
2015,07,13,13,25,23.60
2015,07,13,13,26,23.70
2015,07,13,13,27,23.70
2015,07,13,13,28,23.60
2015,07,13,13,29,23.50
2015,07,13,13,30,23.50
2015,07,13,13,31,23.60
2015,07,13,13,32,23.60
2015,07,13,13,33,23.60
2015,07,13,13,34,23.50
2015,07,13,13,35,23.40
2015,07,13,13,36,23.40
2015,07,13,13,37,23.40
2015,07,13,13,38,23.30
2015,07,13,13,39,23.30
2015,07,13,13,40,23.30
2015,07,13,13,41,23.20
2015,07,13,13,42,23.30
2015,07,13,13,43,23.30
2015,07,13,13,44,23.30
2015,07,13,13,45,23.30
2015,07,13,13,46,23.30
2015,07,13,13,47,23.20
2015,07,13,13,48,23.00
2015,07,13,13,49,22.90
2015,07,13,13,50,22.90
2015,07,13,13,51,22.80
2015,07,13,13,52,22.80
2015,07,13,13,53,22.60
2015,07,13,13,54,22.50
2015,07,13,13,55,22.40
2015,07,13,13,56,22.40
2015,07,13,13,57,22.50
2015,07,13,13,58,22.70
2015,07,13,13,59,22.90
2015,07,13,14,00,23.10
2015,07,13,14,01,23.10
2015,07,13,14,02,23.10
2015,07,13,14,03,23.10
2015,07,13,14,04,23.00
2015,07,13,14,05,23.00
2015,07,13,14,06,23.00
2015,07,13,14,07,23.00
2015,07,13,14,08,23.00
2015,07,13,14,09,22.90
2015,07,13,14,10,22.90
2015,07,13,14,11,22.90
2015,07,13,14,12,22.90
2015,07,13,14,13,23.00
2015,07,13,14,14,23.00
2015,07,13,14,15,23.10
2015,07,13,14,16,23.30
2015,07,13,14,17,23.50
2015,07,13,14,18,23.60
2015,07,13,14,19,23.70
2015,07,13,14,20,23.80
2015,07,13,14,21,23.90
2015,07,13,14,22,23.90
2015,07,13,14,23,23.80
2015,07,13,14,24,23.80
2015,07,13,14,25,23.90
2015,07,13,14,26,24.00
2015,07,13,14,27,24.10
2015,07,13,14,28,24.10
2015,07,13,14,29,24.20
2015,07,13,14,30,24.20
2015,07,13,14,31,24.30
2015,07,13,14,32,24.30
2015,07,13,14,33,24.40
2015,07,13,14,34,24.50
2015,07,13,14,35,24.50
2015,07,13,14,36,24.60
2015,07,13,14,37,24.70
2015,07,13,14,38,24.60
2015,07,13,14,39,24.50
2015,07,13,14,40,24.40
2015,07,13,14,41,24.40
2015,07,13,14,42,24.30
2015,07,13,14,43,24.20
2015,07,13,14,44,24.00
2015,07,13,14,45,23.80
2015,07,13,14,46,23.70
2015,07,13,14,47,23.50
2015,07,13,14,48,23.30
2015,07,13,14,49,23.20
2015,07,13,14,50,23.30
2015,07,13,14,51,23.40
2015,07,13,14,52,23.60
2015,07,13,14,53,23.80
2015,07,13,14,54,23.90
2015,07,13,14,55,24.20
2015,07,13,14,56,24.40
2015,07,13,14,57,24.50
2015,07,13,14,58,24.40
2015,07,13,14,59,24.20
2015,07,13,15,00,24.20
2015,07,13,15,01,24.10
2015,07,13,15,02,24.00
2015,07,13,15,03,24.00
2015,07,13,15,04,24.10
2015,07,13,15,05,24.20
2015,07,13,15,06,24.10
2015,07,13,15,07,24.10
2015,07,13,15,08,24.00
2015,07,13,15,09,24.00
2015,07,13,15,10,23.90
2015,07,13,15,11,23.70
2015,07,13,15,12,23.50
2015,07,13,15,13,23.40
2015,07,13,15,14,23.40
2015,07,13,15,15,23.40
2015,07,13,15,16,23.30
2015,07,13,15,17,23.30
2015,07,13,15,18,23.20
2015,07,13,15,19,23.20
2015,07,13,15,20,23.10
2015,07,13,15,21,23.10
2015,07,13,15,22,23.10
2015,07,13,15,23,23.10
2015,07,13,15,24,23.20
2015,07,13,15,25,23.20
2015,07,13,15,26,23.20
2015,07,13,15,27,23.20
2015,07,13,15,28,23.30
2015,07,13,15,29,23.50
2015,07,13,15,30,23.70
2015,07,13,15,31,23.90
2015,07,13,15,32,24.20
2015,07,13,15,33,24.30
2015,07,13,15,34,24.50
2015,07,13,15,35,24.50
2015,07,13,15,36,24.60
2015,07,13,15,37,24.70
2015,07,13,15,38,24.60
2015,07,13,15,39,24.50
2015,07,13,15,40,24.40
2015,07,13,15,41,24.20
2015,07,13,15,42,24.20
2015,07,13,15,43,24.10
2015,07,13,15,44,24.10
2015,07,13,15,45,24.10
2015,07,13,15,46,24.10
2015,07,13,15,47,24.10
2015,07,13,15,48,24.10
2015,07,13,15,49,23.90
2015,07,13,15,50,23.70
2015,07,13,15,51,23.40
2015,07,13,15,52,23.20
2015,07,13,15,53,23.20
2015,07,13,15,54,23.20
2015,07,13,15,55,23.20
2015,07,13,15,56,23.30
2015,07,13,15,57,23.40
2015,07,13,15,58,23.50
2015,07,13,15,59,23.60
2015,07,13,16,00,23.80
2015,07,13,16,01,23.90
2015,07,13,16,02,24.10
2015,07,13,16,03,24.20
2015,07,13,16,04,24.30
2015,07,13,16,05,24.40
2015,07,13,16,06,24.30
2015,07,13,16,07,24.00
2015,07,13,16,08,23.70
2015,07,13,16,09,23.50
2015,07,13,16,10,23.50
2015,07,13,16,11,23.50
2015,07,13,16,12,23.60
2015,07,13,16,13,23.60
2015,07,13,16,14,23.60
2015,07,13,16,15,23.50
2015,07,13,16,16,23.60
2015,07,13,16,17,23.70
2015,07,13,16,18,23.80
2015,07,13,16,19,24.10
2015,07,13,16,20,24.30
2015,07,13,16,21,24.40
2015,07,13,16,22,24.50
2015,07,13,16,23,24.60
2015,07,13,16,24,24.50
2015,07,13,16,25,24.60
2015,07,13,16,26,24.50
2015,07,13,16,27,24.20
2015,07,13,16,28,23.80
2015,07,13,16,29,23.40
2015,07,13,16,30,23.30
2015,07,13,16,31,23.20
2015,07,13,16,32,23.20
2015,07,13,16,33,23.20
2015,07,13,16,34,23.30
2015,07,13,16,35,23.30
2015,07,13,16,36,23.30
2015,07,13,16,37,23.30
2015,07,13,16,38,23.40
2015,07,13,16,39,23.40
2015,07,13,16,40,23.50
2015,07,13,16,41,23.60
2015,07,13,16,42,23.70
2015,07,13,16,43,23.90
2015,07,13,16,44,23.80
2015,07,13,16,45,23.60
2015,07,13,16,46,23.40
2015,07,13,16,47,23.20
2015,07,13,16,48,23.20
2015,07,13,16,49,23.20
2015,07,13,16,50,23.20
2015,07,13,16,51,23.20
2015,07,13,16,52,23.20
2015,07,13,16,53,23.20
2015,07,13,16,54,23.20
2015,07,13,16,55,23.20
2015,07,13,16,56,23.20
2015,07,13,16,57,23.20
2015,07,13,16,58,23.30
2015,07,13,16,59,23.30
2015,07,13,17,00,23.40
2015,07,13,17,01,23.50
2015,07,13,17,02,23.60
2015,07,13,17,03,23.70
2015,07,13,17,04,23.80
2015,07,13,17,05,23.90
2015,07,13,17,06,24.10
2015,07,13,17,07,24.20
2015,07,13,17,08,24.20
2015,07,13,17,09,24.20
2015,07,13,17,10,24.30
2015,07,13,17,11,24.20
2015,07,13,17,12,24.10
2015,07,13,17,13,24.00
2015,07,13,17,14,23.90
2015,07,13,17,15,23.90
2015,07,13,17,16,23.90
2015,07,13,17,17,23.70
2015,07,13,17,18,23.70
2015,07,13,17,19,23.70
2015,07,13,17,20,23.60
2015,07,13,17,21,23.50
2015,07,13,17,22,23.50